Starlink 11505

operational
NORAD ID: 62469 Int'l Des: 2024-254 Owner: SPXS Country: US Constellation: starlink
LEOCIRCULAR

Über Starlink 11505

Beschreibung wird geladen...

Live-Position

3D-Globus wird geladen...

Nächste Überflüge

Höhenverlauf

Altitude vs Time

uPlot chart will show altitude changes over time

Zweizeiliger Elementsatz

1 62469U 24254H 25300.99754915 .00285181 00000-0 21339-2 0 9998
2 62469 43.0006 302.6777 0005382 286.8298 73.1979 15.71015668 48520
Epoch: 27. Okt. 2025 • Age: 21 hours

Aktueller Status

Höhe 361.8 km
Geschwindigkeit 7.69 km/s
Subsatellitenpunkt -37.01°S, 109.15°W
Startdatum 31. Dez. 2024
Alter 0.8 years
Typ internet

Technische Details

Klassifizierung Payload
Masse 960.00 kg
Trockenmasse 910.00 kg
Gesamtmasse 960.00 kg
Länge 0.30 m
Durchmesser 4.10 m
Spannweite 29.00 m
Form Box + pan
Hersteller SPXS
Bus-Typ Starlink V2MD
Phasenstatus In Orbit
Besitzer/Staat SPXS/US

Große Konstellationen

Loading constellations...